sat.trackr.live / text

‹ back to catalog

ONEWEB-0027

NORAD 45432 · 2020-020J

PAYLOAD ACTIVE UNKNOWN

§ Identity

Operator
Country
UK
Launch date
2020-03-21
Launch site
TYMSC
Launch vehicle
Mass (kg)
RCS (m²)

Purposes: comms

External: N2YO · Heavens-Above · Gunter

§ Orbital elements

Epoch: 2026-09-20T04:20:57.560064Z

Period
109.29 min
Inclination
87.9203°
Eccentricity
0.0001490
Mean motion
13.17648504 rev/d
Perigee alt
1,192.6 km
Apogee alt
1,194.8 km
Semi-major
7,571.9 km
B*
1.5052e-4
RAAN
347.0034°
Arg perigee
105.8367°
Mean anomaly
254.2929°
Rev number
31,886

§ Raw data

ONEWEB-00271 45432U 20020J   26263.18122176  .00000071  00000+0  15052-3 0  99922 45432  87.9203 347.0034 0001490 105.8367 254.2929 13.17648504318862

JSON: /api/v1/satellites/45432 · /tle

For live sub-satellite position, see the globe view (requires WebGL).

§ Visibility from observer

Set your observer location to see the next 7 days of passes ≥ 10°. The values pass through the URL so the page stays shareable.

No JS? Fill the form by hand. The geolocation button needs JavaScript.